星链-2648 (STARLINK-2648 )

导读 | 星芒AI

STARLINK-2648 是 SpaceX Starlink 项目中的一颗低轨通信卫星,旨在为全球用户提供高速互联网服务。该卫星属于 Starlink 群体的第二批部署,于 2021 年发射,运行在约 550 公里的轨道高度。它采用先进的相控阵天线和激光通信技术,提升数据传输效率与网络稳定性。作为 Starlink 系统的重要组成部分,STARLINK-2648 有助于扩大覆盖范围,特别是在偏远和网络基础设施薄弱的地区。

基本信息
目录编号:
48679
目录名称:
STARLINK-2648
国际标识:
2021-044AT
轨道中心:
EARTH
卫星名称:
星链-2648
卫星全名:
星链-2648 (STARLINK-2648 )
卫星状态:
在轨 (已飞行1667 天)
发射日期:
2021-05-26 UTC
国别 :
美国 (US)
星等 :
--
轨道信息
数据来源 国际轨道数据
星历时间: 2025-12-17T23:46:32+0800
19小时前
查看轨道信息
半长轴: 6925.335km
偏心率: 0.0001288
轨道倾角: 53.056°
近地点辐角 87.577°
升交点赤经 119.873°
平近点角 272.537°
近地点: 546.308km
远地点: 548.092km
周期: 95.592分钟
每日圈数: 15.064047
详细信息
固有亮度:
5
最大亮度:
2.5
卫星平台:
Starlink v1.5
覆盖范围:
全球
运营商:
太空探索技术公司
运营商所在国:
美国
制造商(研发单位):
太空探索技术公司
制造商所在国:
美国
使用方式:
暂无
卫星简介
星链(Starlink)计划是由太空探索技术公司(SpaceX)提出的一个巨型低轨卫星互联网星座项目,计划在2019年至2024年间在太空搭建由约1.2万颗卫星组成的“星链”网络,其中1584颗将部署在地球上空550千米处的近地轨道,并从2020年开始工作。该卫星仍在工作。
2D轨道图
3D轨道图
轨道高度分析图
轨道倾角分析图
轨道综合分析图
查看轨道综合分析图